Challis, ID

12:09 PM MDT on June 27, 2017 (GMT -0600)
Challis

Weather History for KLLJ - January, 2014

Change the Weather History Date:

Monday, January 13, 2014

  Actual Average Record
Temperature  
Mean Temperature 37 °F 19 °F  
Max Temperature 46 °F 29 °F 49 °F (1973)
Min Temperature 27 °F 8 °F -25 °F (2017)
Degree Days  
Heating Degree Days 28 46  
Month to date heating degree days 503 612  
Since 1 July heating degree days 3959 4108  
Cooling Degree Days 0 0  
Month to date cooling degree days 0 0  
Year to date cooling degree days 0 0  
Moisture  
Dew Point 22 °F    
Average Humidity 56    
Maximum Humidity 75    
Minimum Humidity 37    
Precipitation  
Precipitation 0.00 in 0.02 in 0.10 in (1957)
Month to date precipitation 0.15 0.25  
Year to date precipitation 0.15 0.25  
Sea Level Pressure  
Sea Level Pressure 30.28 in    
Wind  
Wind Speed 7 mph (WSW)    
Max Wind Speed 25 mph    
Max Gust Speed 36 mph    
Visibility 10 miles    
Events      
T = Trace of Precipitation, MM = Missing Value Source: NWS Daily Summary

Daily Weather History Graph

Daily Weather History Graph

Search for Another Location

Airport or City:

Trip Planner

Search our weather history database for the weather conditions in past years. The results will help you decide how hot, cold, wet, or windy it might be!

Date:

Astronomy

Jan. 13, 2014 Rise Set
Actual Time 8:10 AM MST 5:20 PM MST
Civil Twilight 7:38 AM MST 5:53 PM MST
Nautical Twilight 7:02 AM MST 6:29 PM MST
Astronomical Twilight 6:27 AM MST 7:04 PM MST
Moon 3:39 PM MST (1/13) 6:02 AM MST (1/13)
Length of Visible Light 10h 14m
Length of Day
9h 09m
Waxing Gibbous, 95% of the Moon is Illuminated
Jan 13
Waxing Gibbous
Jan 15
Full
Jan 23
Last Quarter
Jan 30
New
Feb 6
First Quarter

Hourly Weather History & Observations

Time (MST) Temp. Windchill Dew Point Humidity Pressure Visibility Wind Dir Wind Speed Gust Speed Precip Events Conditions
12:55 AM 27.0 °F - 19.9 °F 75% 30.18 in 10.0 mi Calm Calm - N/A   Overcast
1:55 AM 32.0 °F 27.5 °F 21.0 °F 64% 30.17 in 10.0 mi SSW 4.6 mph - N/A   Overcast
2:55 AM 33.1 °F 28.7 °F 21.9 °F 64% 30.19 in 10.0 mi SSE 4.6 mph - N/A   Overcast
3:55 AM 34.0 °F 26.6 °F 24.1 °F 67% 30.20 in 10.0 mi SSW 9.2 mph - N/A   Overcast
4:55 AM 35.1 °F 31.0 °F 25.0 °F 67% 30.22 in 10.0 mi South 4.6 mph - N/A   Overcast
5:55 AM 34.0 °F 31.0 °F 25.0 °F 70% 30.25 in 10.0 mi Variable 3.5 mph - N/A   Overcast
6:55 AM 34.0 °F 26.0 °F 24.1 °F 67% 30.25 in 10.0 mi SSE 10.4 mph - N/A   Overcast
7:55 AM 33.1 °F 25.5 °F 21.9 °F 64% 30.26 in 10.0 mi SSW 9.2 mph - N/A   Scattered Clouds
8:55 AM 35.1 °F 27.4 °F 21.9 °F 59% 30.26 in 10.0 mi SSE 10.4 mph - N/A   Clear
9:55 AM 43.0 °F 36.0 °F 19.0 °F 38% 30.25 in 10.0 mi West 13.8 mph - N/A   Clear
10:55 AM 45.0 °F 41.8 °F 19.9 °F 37% 30.24 in 10.0 mi WSW 5.8 mph - N/A   Clear
12:55 PM 46.0 °F 40.6 °F 21.0 °F 37% 30.22 in 10.0 mi West 11.5 mph - N/A   Clear
1:55 PM 46.0 °F 38.8 °F 21.0 °F 37% 30.19 in 10.0 mi WNW 18.4 mph 28.8 mph N/A   Clear
2:55 PM 44.1 °F 35.9 °F 19.9 °F 38% 30.22 in 10.0 mi NW 19.6 mph 29.9 mph N/A   Clear
3:55 PM 43.0 °F 36.8 °F 19.0 °F 38% 30.26 in 10.0 mi WNW 11.5 mph - N/A   Overcast
4:55 PM 41.0 °F 39.0 °F 19.9 °F 43% 30.29 in 10.0 mi West 3.5 mph - N/A   Overcast
5:55 PM 41.0 °F 35.8 °F 19.9 °F 43% 30.32 in 10.0 mi NW 8.1 mph - N/A   Overcast
6:55 PM 39.9 °F 34.5 °F 21.9 °F 49% 30.35 in 10.0 mi WNW 8.1 mph - N/A   Overcast
7:55 PM 37.9 °F - 21.9 °F 53% 30.39 in 10.0 mi Calm Calm - N/A   Overcast
8:55 PM 37.0 °F - 23.0 °F 57% 30.40 in 10.0 mi Calm Calm - N/A   Overcast
9:55 PM 37.0 °F 34.5 °F 23.0 °F 57% 30.39 in 10.0 mi Variable 3.5 mph - N/A   Overcast
10:55 PM 36.0 °F 33.3 °F 23.0 °F 59% 30.40 in 10.0 mi Variable 3.5 mph - N/A   Mostly Cloudy
11:55 PM 32.0 °F - 23.0 °F 69% 30.43 in 10.0 mi Calm Calm - N/A   Scattered Clouds